RHESSI

Last updated on Thu Apr 20 2023 00:03:32 GMT+0000 (Coordinated Universal Time)

1 27370U 02004A 23109.72733825 .09284791 49088-5 80738-3 0 9990 2 27370 38.0148 211.4523 0002536 349.2955 139.6276 16.38230748174408

Satellite not in orbit